FW0786 Weather Reports


time (UTC)temp
F
wind
direction
speed
knots
gust
knots
rain 1hr
in
rain 24hr
in
rain mn
in
humidity
%
barometer
mb
20260506165242 47 333 1.7 3.5 0.00 0.15 0.08 94 1010.1
20260506164742 47 346 1.7 3.5 0.01 0.15 0.08 94 1010.5
20260506163742 47 283 1.7 3.5 0.01 0.15 0.08 94 1010.2
20260506163240 47 327 1.7 4.3 0.02 0.15 0.08 94 1010.3
20260506162740 47 330 1.7 4.3 0.02 0.15 0.08 94 1010.4
20260506162240 47 311 1.7 3.5 0.02 0.15 0.08 94 1010.5
20260506161741 47 325 1.7 3.5 0.02 0.15 0.08 94 1010.5
20260506161240 48 268 1.7 3.5 0.02 0.15 0.08 94 1010.6
20260506160740 48 312 1.7 2.6 0.02 0.15 0.08 94 1010.5
20260506160240 47 284 0.9 2.6 0.02 0.15 0.08 94 1010.4
20260506155740 47 284 0.9 2.6 0.02 0.15 0.08 94 1010.3
20260506155237 47 284 1.7 2.6 0.02 0.15 0.08 94 1010.4
20260506154737 47 317 1.7 2.6 0.01 0.14 0.07 94 1010.4
20260506153237 48 349 1.7 3.5 0.00 0.13 0.06 94 1010.4
20260506152736 48 307 1.7 3.5 0.00 0.13 0.06 94 1010.5
20260506152237 48 321 1.7 4.3 0.00 0.13 0.06 94 1010.4
20260506151737 48 320 1.7 4.3 0.00 0.13 0.06 94 1010.5
20260506151236 48 319 0.9 2.6 0.00 0.13 0.06 94 1010.6
20260506150234 48 279 0.9 4.3 0.00 0.13 0.06 94 1010.5
20260506145733 48 272 0.9 3.5 0.00 0.13 0.06 94 1010.7
20260506145230 49 300 0.9 3.5 0.00 0.13 0.06 94 1010.7
20260506144729 49 338 0.0 1.7 0.00 0.13 0.06 94 1011.0
20260506144229 49 338 0.9 1.7 0.00 0.13 0.06 94 1010.9
20260506143729 49 0 0.9 2.6 0.00 0.13 0.06 94 1010.9
20260506143231 49 0 0.9 2.6 0.01 0.13 0.06 94 1010.9
20260506142730 48 350 0.9 2.6 0.01 0.13 0.06 94 1011.1
20260506141229 49 350 0.9 1.7 0.02 0.13 0.06 94 1011.0
20260506140728 49 349 0.9 1.7 0.02 0.13 0.06 94 1011.0
20260506140228 49 355 0.9 1.7 0.02 0.13 0.06 94 1011.0
20260506135728 49 355 0.9 2.6 0.02 0.13 0.06 94 1011.0
20260506135228 49 5 1.7 2.6 0.02 0.13 0.06 94 1011.0
20260506134728 49 304 1.7 3.5 0.02 0.13 0.06 94 1011.4
20260506134227 49 336 0.9 3.5 0.02 0.13 0.06 94 1011.0
20260506133728 49 345 0.9 2.6 0.02 0.13 0.06 94 1011.0
20260506133228 49 338 0.9 4.3 0.01 0.12 0.06 94 1011.1
20260506131728 49 338 1.7 5.2 0.00 0.11 0.04 94 1011.6
20260506131228 49 36 0.9 2.6 0.00 0.11 0.04 94 1011.5
20260506130728 49 37 0.0 2.6 0.00 0.11 0.04 94 1011.3
20260506130228 50 345 0.9 1.7 0.00 0.11 0.04 94 1011.5
20260506125228 50 345 0.9 1.7 0.00 0.11 0.04 94 1011.9
20260506124727 50 345 0.0 1.7 0.00 0.11 0.04 94 1011.6
20260506123728 50 345 0.0 1.7 0.00 0.11 0.04 94 1011.6
20260506123229 50 345 0.0 1.7 0.00 0.11 0.04 94 1011.7
20260506122728 50 345 0.0 1.7 0.00 0.11 0.04 94 1011.9
20260506122229 50 345 0.9 2.6 0.00 0.11 0.04 94 1011.6
20260506121728 50 345 0.9 2.6 0.00 0.11 0.04 94 1011.6
20260506121228 50 319 0.9 2.6 0.00 0.11 0.04 94 1011.8
20260506120727 50 348 0.9 2.6 0.00 0.11 0.04 94 1012.1
20260506120227 50 337 1.7 3.5 0.00 0.11 0.04 94 1012.2
20260506115728 50 38 1.7 3.5 0.00 0.11 0.04 94 1012.0
20260506114728 50 351 0.9 1.7 0.00 0.11 0.04 94 1011.7
20260506114229 50 0 0.9 1.7 0.00 0.11 0.04 94 1011.7
20260506113728 50 0 0.9 1.7 0.00 0.11 0.04 94 1011.6
20260506113227 50 0 0.9 3.5 0.00 0.11 0.04 94 1011.6
20260506112728 50 0 0.9 3.5 0.00 0.11 0.04 94 1011.6
20260506110723 51 5 0.0 1.7 0.00 0.11 0.04 94 1011.7
20260506110223 51 5 0.0 1.7 0.00 0.11 0.04 95 1011.5
20260506104721 51 5 0.9 1.7 0.00 0.11 0.04 94 1011.6
20260506104223 51 5 0.9 1.7 0.00 0.11 0.04 94 1011.6
20260506103222 51 5 0.0 1.7 0.00 0.11 0.04 94 1011.7
20260506102721 51 5 0.9 2.6 0.00 0.11 0.04 94 1011.5
20260506102222 51 5 0.9 2.6 0.00 0.11 0.04 94 1011.6
20260506101722 51 331 0.9 1.7 0.00 0.11 0.04 94 1011.8
20260506101222 51 331 0.9 2.6 0.00 0.11 0.04 94 1011.9
20260506100721 51 338 0.9 2.6 0.00 0.11 0.04 94 1011.8
20260506100221 52 337 0.9 2.6 0.00 0.11 0.04 94 1011.9
20260506095722 52 57 0.9 4.3 0.00 0.11 0.04 94 1011.6
20260506095220 52 61 0.9 4.3 0.00 0.11 0.04 95 1011.6
20260506094721 52 355 0.9 2.6 0.00 0.11 0.04 95 1012.0
20260506094221 52 355 0.9 2.6 0.00 0.11 0.04 94 1011.9
20260506093721 52 15 0.9 2.6 0.00 0.11 0.04 95 1011.8
20260506092721 53 5 0.9 1.7 0.00 0.11 0.04 95 1011.8
20260506091221 53 5 0.9 2.6 0.00 0.11 0.04 94 1011.7
20260506090721 53 5 0.9 3.5 0.00 0.11 0.04 94 1011.5
20260506090219 53 63 0.9 3.5 0.00 0.11 0.04 94 1011.7
20260506085719 53 311 0.9 1.7 0.00 0.11 0.04 94 1011.9
20260506085219 53 311 0.9 1.7 0.00 0.11 0.04 95 1011.7
20260506084721 53 311 0.0 1.7 0.00 0.11 0.04 94 1012.3
20260506084220 53 311 0.0 0.9 0.00 0.11 0.04 94 1011.9
20260506083719 53 311 0.0 0.9 0.00 0.11 0.04 94 1011.6
20260506083219 53 311 0.0 1.7 0.00 0.11 0.04 94 1011.9
20260506082719 53 311 0.9 1.7 0.00 0.11 0.04 94 1012.2
20260506082218 53 311 0.9 1.7 0.00 0.11 0.04 94 1012.1
20260506081718 54 305 0.9 3.5 0.00 0.11 0.04 94 1012.3
20260506081218 53 311 0.9 3.5 0.00 0.11 0.04 94 1012.5
20260506080717 53 107 0.0 1.7 0.00 0.11 0.04 94 1011.9
20260506073216 54 107 0.9 1.7 0.00 0.11 0.04 94 1011.3
20260506072715 54 107 0.0 1.7 0.00 0.11 0.04 94 1011.7
20260506072215 54 107 0.0 0.9 0.00 0.11 0.04 94 1011.5
20260506071715 54 107 0.0 0.0 0.00 0.11 0.04 94 1011.4
20260506071215 54 107 0.0 0.9 0.00 0.11 0.04 94 1011.4
20260506070715 54 107 0.9 1.7 0.00 0.11 0.04 94 1011.6
20260506070215 54 107 0.9 1.7 0.00 0.11 0.04 94 1011.7
20260506061214 54 107 0.0 0.9 0.00 0.11 0.04 93 1011.7
20260506050712 54 108 0.9 2.6 0.04 0.11 0.04 92 1012.2
20260506050211 54 108 0.9 2.6 0.04 0.11 0.04 92 1012.1
20260506043711 55 46 0.9 1.7 0.04 0.09 0.02 90 1012.0
20260506043210 55 46 0.9 1.7 0.04 0.09 0.02 90 1011.4
20260506042710 55 46 0.9 1.7 0.04 0.09 0.02 90 1011.9
20260506042208 55 46 0.9 2.6 0.04 0.08 0.01 90 1011.8
20260506041208 55 31 1.7 7.8 0.03 0.07 0.00 89 1012.1
20260506040209 56 5 0.9 3.5 0.03 0.07 0.00 89 1012.3
20260506035707 56 278 0.0 1.7 0.02 0.06 0.06 89 1012.1
20260506035207 57 278 0.9 2.6 0.02 0.06 0.06 89 1011.6
20260506034705 57 278 1.7 7.0 0.02 0.06 0.06 90 1011.4
20260506034205 57 246 2.6 7.0 0.01 0.05 0.05 90 1011.3
20260506033705 57 338 3.5 7.8 0.01 0.05 0.05 90 1011.1
20260506033205 58 262 2.6 9.6 0.01 0.05 0.05 91 1010.7
20260506032706 58 331 1.7 9.6 0.01 0.05 0.05 92 1010.6
20260506032206 58 325 0.9 4.3 0.00 0.04 0.04 92 1010.6
20260506031705 58 9 0.9 4.3 0.00 0.04 0.04 92 1010.1
20260506031206 58 342 0.9 2.6 0.00 0.04 0.04 92 1010.2
20260506030705 58 342 0.9 2.6 0.00 0.04 0.04 91 1010.1
20260506030206 58 9 0.9 3.5 0.00 0.04 0.04 91 1010.1
20260506025706 58 5 0.9 3.5 0.00 0.04 0.04 91 1010.2
20260506025205 58 5 0.0 2.6 0.00 0.04 0.04 91 1010.2
20260506024206 58 9 0.0 2.6 0.00 0.04 0.04 91 1010.1
20260506023706 58 9 0.0 2.6 0.00 0.04 0.04 91 1010.1
20260506023206 58 15 0.0 0.0 0.00 0.04 0.04 90 1010.1
20260506022705 58 15 0.0 0.0 0.00 0.04 0.04 90 1010.4
20260506022208 58 15 0.0 1.7 0.00 0.04 0.04 90 1010.0
20260506021706 58 15 1.7 3.5 0.00 0.04 0.04 90 1010.2
20260506021206 58 15 1.7 3.5 0.00 0.04 0.04 90 1010.3
20260506020707 59 318 0.9 3.5 0.00 0.04 0.04 90 1010.3
20260506020206 59 355 0.0 2.6 0.00 0.04 0.04 90 1010.1
20260506015706 59 355 0.0 0.0 0.00 0.04 0.04 90 1010.1
20260506015206 59 355 0.0 0.9 0.00 0.04 0.04 89 1010.0
20260506014706 59 355 0.0 0.9 0.00 0.04 0.04 89 1010.0
20260506014206 59 355 0.0 1.7 0.00 0.04 0.04 89 1009.6
20260506013707 59 355 0.0 1.7 0.00 0.04 0.04 89 1009.5
20260506013206 59 355 0.0 0.9 0.00 0.04 0.04 89 1009.4
20260506012707 59 355 0.0 0.0 0.00 0.04 0.04 89 1009.4
20260506012206 59 355 0.0 1.7 0.00 0.04 0.04 89 1009.5
20260506011706 59 355 0.9 2.6 0.00 0.04 0.04 89 1009.3
20260506011205 60 355 0.9 2.6 0.00 0.04 0.04 89 1009.4
20260506010706 60 355 0.9 1.7 0.00 0.04 0.04 88 1009.5
20260506010205 60 355 0.9 2.6 0.00 0.04 0.04 88 1009.4
20260506005705 60 355 1.7 3.5 0.00 0.04 0.04 88 1009.4
20260506005205 60 355 1.7 3.5 0.00 0.04 0.04 87 1009.3
20260506004204 61 355 0.9 2.6 0.00 0.04 0.04 85 1009.3
20260506003705 61 355 1.7 3.5 0.00 0.04 0.04 84 1009.2
20260506003201 62 355 1.7 3.5 0.00 0.04 0.04 83 1009.1
20260506002700 62 106 0.9 2.6 0.00 0.04 0.04 82 1009.1
20260506002159 63 107 0.9 1.7 0.00 0.04 0.04 80 1009.2
20260506001659 64 108 0.0 2.6 0.00 0.04 0.04 78 1009.1
20260506001159 64 108 0.9 2.6 0.00 0.04 0.04 76 1009.0
20260506000700 64 84 0.9 3.5 0.00 0.04 0.04 75 1009.0
20260506000158 63 84 0.9 3.5 0.00 0.04 0.04 76 1009.1
20260505235657 64 239 0.9 1.7 0.00 0.04 0.04 77 1009.2
20260505235158 64 240 0.9 4.3 0.00 0.04 0.04 77 1009.1
20260505234657 63 194 1.7 4.3 0.00 0.04 0.04 78 1009.1
20260505233657 63 342 0.0 1.7 0.00 0.04 0.04 82 1009.1
20260505233157 63 9 0.9 2.6 0.00 0.04 0.04 83 1008.8
20260505232657 63 9 1.7 4.3 0.00 0.04 0.04 82 1008.7
20260505232158 64 9 1.7 4.3 0.00 0.04 0.04 82 1008.6
20260505231658 64 5 1.7 4.3 0.00 0.04 0.04 78 1008.5
20260505231155 64 166 0.9 4.3 0.00 0.04 0.04 74 1008.4
20260505230655 64 62 1.7 5.2 0.00 0.04 0.04 74 1008.4
20260505230155 63 163 1.7 5.2 0.00 0.04 0.04 78 1008.4
20260505225155 63 167 1.7 4.3 0.00 0.04 0.04 84 1008.2
20260505224655 63 167 1.7 4.3 0.00 0.04 0.04 85 1008.4
20260505224155 63 54 1.7 4.3 0.00 0.04 0.04 84 1008.4
20260505223655 63 53 1.7 4.3 0.00 0.04 0.04 84 1008.3
20260505223155 64 5 1.7 3.5 0.00 0.04 0.04 83 1008.2
20260505222153 63 169 1.7 4.3 0.00 0.04 0.04 82 1008.2
20260505221655 63 165 1.7 4.3 0.00 0.04 0.04 83 1008.2
20260505221153 63 110 0.0 2.6 0.00 0.04 0.04 83 1008.4
20260505220653 63 79 0.0 1.7 0.00 0.04 0.04 83 1008.4
20260505220154 63 79 0.9 2.6 0.00 0.04 0.04 83 1008.6
20260505215653 63 79 0.9 3.5 0.00 0.04 0.04 83 1008.5
20260505215152 63 5 1.7 3.5 0.00 0.04 0.04 84 1008.1
20260505214152 63 343 1.7 5.2 0.00 0.04 0.04 84 1007.8
20260505213651 64 42 1.7 5.2 0.00 0.04 0.04 83 1007.8
20260505213152 64 343 2.6 7.0 0.00 0.04 0.04 82 1007.9
20260505212650 65 49 2.6 7.0 0.00 0.04 0.04 81 1007.7
20260505212151 66 355 2.6 7.0 0.00 0.04 0.04 78 1007.8
20260505211651 67 342 1.7 6.1 0.00 0.04 0.04 72 1007.8
20260505211152 66 193 2.6 7.8 0.00 0.04 0.04 71 1007.9
20260505210650 66 136 2.6 7.8 0.00 0.04 0.04 72 1007.9
20260505205651 65 148 1.7 5.2 0.01 0.04 0.04 74 1007.9
20260505204649 65 215 2.6 7.8 0.03 0.04 0.04 75 1007.9
20260505204149 65 214 2.6 7.8 0.03 0.04 0.04 75 1007.9
20260505203648 65 200 2.6 6.1 0.03 0.04 0.04 75 1007.4
20260505202650 65 153 2.6 6.1 0.04 0.04 0.04 77 1007.1
20260505202149 65 148 2.6 7.0 0.04 0.04 0.04 78 1007.2
20260505201650 65 166 2.6 7.0 0.04 0.04 0.04 78 1007.2
20260505201147 65 196 2.6 4.3 0.04 0.04 0.04 79 1007.1
20260505200646 65 127 2.6 5.2 0.04 0.04 0.04 78 1007.1
20260505195645 67 233 6.1 22.6 0.03 0.03 0.03 72 1007.3
20260505195145 70 271 4.3 22.6 0.01 0.01 0.01 65 1007.7
20260505194143 71 178 2.6 12.2 0.01 0.01 0.01 60 1005.5
20260505192643 77 236 6.1 20.9 0.00 0.00 0.00 46 1005.0
20260505192143 79 246 5.2 20.9 0.00 0.00 0.00 39 1004.9
20260505191141 79 139 6.1 17.4 0.00 0.00 0.00 37 1004.2
20260505190641 80 263 7.0 17.4 0.00 0.00 0.00 38 1004.5
20260505190140 80 202 6.1 13.9 0.00 0.00 0.00 37 1004.1
20260505185640 80 167 5.2 16.5 0.00 0.00 0.00 37 1004.1
20260505185141 80 178 4.3 16.5 0.00 0.00 0.00 37 1004.2
20260505184641 80 297 4.3 11.3 0.00 0.00 0.00 37 1004.2
20260505184141 80 182 5.2 18.2 0.00 0.00 0.00 37 1004.3
20260505183640 80 80 5.2 18.2 0.00 0.00 0.00 37 1004.3
20260505183140 79 150 4.3 14.8 0.00 0.00 0.00 38 1004.4
20260505182641 79 68 5.2 14.8 0.00 0.00 0.00 38 1004.4
20260505182142 79 208 6.1 14.8 0.00 0.00 0.00 39 1004.6
20260505181640 79 206 6.1 14.8 0.00 0.00 0.00 37 1004.5
20260505180642 80 204 7.0 15.6 0.00 0.00 0.00 37 1005.0
20260505180140 80 191 6.1 19.1 0.00 0.00 0.00 37 1004.9
20260505175640 79 197 7.0 19.1 0.00 0.00 0.00 37 1004.9
20260505175141 80 129 7.0 16.5 0.00 0.00 0.00 37 1004.9
20260505174640 80 276 6.1 15.6 0.00 0.00 0.00 36 1005.0
20260505174141 80 236 5.2 15.6 0.00 0.00 0.00 37 1005.0
20260505173640 81 269 4.3 14.8 0.00 0.00 0.00 37 1005.0
20260505173140 80 202 6.1 16.5 0.00 0.00 0.00 36 1004.9
20260505172638 80 196 7.8 18.2 0.00 0.00 0.00 38 1005.1
20260505172140 80 208 7.0 18.2 0.00 0.00 0.00 36 1005.1
20260505171636 80 243 6.1 13.9 0.00 0.00 0.00 37 1005.3
20260505171134 80 143 6.1 13.9 0.00 0.00 0.00 37 1005.2
20260505170632 80 202 6.1 13.9 0.00 0.00 0.00 38 1005.3
20260505170130 80 337 5.2 12.2 0.00 0.00 0.00 39 1005.3
20260505165630 79 146 4.3 10.4 0.00 0.00 0.00 39 1005.3